This demonstration page uses our WeatherBlox Daily Observations layout. Learn more.

Left ArrowRight Arrow

41.55636, -103.73856

Hourly Observations for July 5, 2022

Temp ( °F °C ) Dew Point ( °F °C ) Humidity (%) Winds ( mph kmh ) Pressure ( in mb ) Visibility ( mi km ) Precip ( " mm )
12:58 am 00:58 Mostly Cloudy with Light Rain 65 18.1 55 12.5 70 70 S 16 26 29.84 1011 10 16 0.01 0.25
1:58 am 01:58 Partly Cloudy 71 21.6 50 9.8 47 47 S 3 6 29.80 1009 10 16 0.00 0.00
2:58 am 02:58 Mostly Cloudy 64 17.5 52 11.1 66 66 Calm 29.81 1009 10 16 0.00 0.00
3:58 am 03:58 Cloudy 65 18.4 49 9.7 57 57 SW 6 9 29.80 1009 10 16 0.00 0.00
4:58 am 04:58 Clear 60 15.4 50 10 70 70 SW 6 9 29.81 1010 10 16 0.00 0.00
5:58 am 05:58 Mostly Cloudy 63 17.1 48 9 59 59 SW 6 9 29.80 1009 10 16 0.00 0.00
6:58 am 06:58 Sunny 67 19.4 51 10.7 57 57 WNW 6 9 29.81 1009 10 16 0.00 0.00
7:58 am 07:58 Sunny 75 23.7 49 9.7 41 41 W 6 9 29.80 1009 10 16 0.00 0.00
8:58 am 08:58 Sunny 80 26.7 50 10 35 35 NW 3 6 29.80 1009 10 16 0.00 0.00
9:58 am 09:58 Sunny 86 29.9 48 8.9 27 27 WNW 3 6 29.80 1009 10 16 0.00 0.00
10:58 am 10:58 Sunny 92 33.2 42 5.7 18 18 S 3 6 29.78 1009 10 16 0.00 0.00
11:58 am 11:58 Sunny 95 34.8 44 6.9 18 18 E 7 11 29.76 1008 9 14 0.00 0.00
12:58 pm 12:58 Sunny 94 34.5 39 4.1 15 15 NNE 10 17 29.75 1008 10 16 0.00 0.00
1:58 pm 13:58 Mostly Cloudy 93 33.9 37 2.6 14 14 NE 7 11 29.73 1007 10 16 0.00 0.00
2:58 pm 14:58 Sunny 93 33.8 44 6.9 19 19 NE 7 11 29.74 1007 10 16 0.00 0.00
3:58 pm 15:58 Sunny 92 33.3 41 4.9 17 17 SSE 14 22 29.75 1007 10 16 0.00 0.00
4:58 pm 16:58 Sunny 94 34.3 35 1.9 13 13 ESE 9 15 29.72 1007 10 16 0.00 0.00
5:58 pm 17:58 Mostly Sunny 82 28 52 11.1 35 35 ESE 30 48 29.76 1008 10 16 0.00 0.00
6:58 pm 18:58 Sunny 80 26.9 53 11.8 39 39 ENE 18 30 29.80 1009 10 16 0.00 0.00
7:58 pm 19:58 Sunny 76 24.4 53 11.7 45 45 NE 18 30 29.84 1011 10 16 0.00 0.00
8:58 pm 20:58 Partly Cloudy 71 21.7 56 13.3 59 59 ESE 15 24 29.87 1012 10 16 0.00 0.00
9:58 pm 21:58 Mostly Cloudy 69 20.5 59 14.8 70 70 E 12 19 29.87 1011 10 16 0.00 0.00
10:58 pm 22:58 Cloudy 66 19.1 57 13.7 71 71 ESE 13 20 29.85 1011 10 16 0.00 0.00
11:58 pm 23:58 Cloudy 67 19.2 56 13.6 70 70 ESE 10 17 29.85 1011 10 16 0.00 0.00

Powered by AerisWeather